samedi 29 Juin 19
13 : 00

Départ du village d’Auphelle 

Le samedi 29 juin :
Départ 13h00 à Auphelle – 26km Marche nordique – 20€


Le dimanche 30 juin :
Départ 9h15 à Auphelle  – 23,4 km  – 20€ et
(25€ à partir du 1er mai et 30€ sur place)
Départ 9h20 à Auphelle – 8km Course Nature 
– 10€
Départ 10h15 à Auphelle – Course enfants – GRATUIT

Parcours sur route avec 250 m de dénivelé

retrait dossard  au village d’Auphelle à partir du
– samedi 29 juin 14h
– dimanche 30 juin de 7h à 9h

Pasta party le samedi 29 juin à 20h à Auphelle
Grillade le dimanche 30 juin à 13:00 à Auphelle

Échauffement Fitness sur la ligne, 15mn avant le départ.

 

 

 

 






Informations :

anninscverif
Inscription en ligne arrétée le 29/06/2019 à 20:00
ClDosNomVoirTempsS.Cat.CC.ClubFFA
11044CHAUSSEBOURG Florian00:34:18 MSE1LIMOGES ATHLE*
21041TISSIER Eliott00:34:54 MJU1LIMOGES ATHLE*
31036LAFARGE Thomas00:36:05 MES1LIMOGES ATHLE*
41045AUGUSTO Theo00:36:28 MJU2CO-KM 42 ST JUST LE MARTEL
51071SOUCHAUD Thomas00:37:10 MSE2team mudrun limoges
61033DUPERRAY Valerian00:37:25 MJU3LIMOGES ATHLE*
71035DUPERRAY Yannis00:37:26 MES2LIMOGES ATHLE*
81042BOUZID Islem00:37:36 MES3LIMOGES ATHLE*
91043BRUNET Timothee00:39:04 MSE3LIMOGES ATHLE*
101039LOURADOUR Harry00:39:58 MCA1LIMOGES ATHLE*
111013LATOUR Regis00:40:48 MV11CO-KM 42 ST JUST LE MARTEL
121069DESPROGES Gaylord00:40:51 MSE4PANA LOISIRS
131010GAUTIER Félix00:40:55 MCA2
141087SALVADORI Martin00:41:48 MJU4mud run limoges
151073BERNES Julien00:41:48 MJU5team mud run
161242CUISINIER Amelie00:41:57 FES1LIMOGES ATHLE*
171038LORGUE Theo00:42:05 MCA3LIMOGES ATHLE*
181072SUFFIA Thibaut00:42:09 MCA4
191245SAVEL Enola00:42:11 FCA1LIMOGES ATHLE*
201050RAVET Stephane00:42:14 MV12
211032POURCHET Dominique00:42:31 MV13
221061FAUQUEMBERQUE Nicolas00:42:36 MV14EBTA/CABC ATHLE
231070TEILLET Christian00:42:53 MV21team malibu limoges
241007DELADONCHAMPS Rémi00:43:06 MSE5
251058DUMY Martin00:43:25 MCA5CO-KM 42 ST JUST LE MARTEL
261090DAFONSECA Manuel00:43:39 MV22
271244PIQUET Amandine00:43:50 FES2LIMOGES ATHLE*
281057DAURIAT Ludovic00:44:22 MSE6VERNEUIL MACADAM
291250INSERGUEIX Agnes00:44:25 FSE1EBTA/CABC ATHLE
301065LACOUTURIERE Benoit00:44:58 MSE7
311086BURGUET Thierry00:45:03 MSE8
321082MALINVAUD Paul00:45:07 MSE9malinvaud
331023BORDERIE Daniel00:45:19 MV15
341286CHIODETTI Laura00:45:48 FSE2
351001BERTHEREAU Yannick00:46:01 MSE10
361056GASPARD Maxime00:46:02 MES4
371060RAYMOND Alain00:46:30 MSE11AS LEGRAND
381004CONCHONNET Léo00:46:37 MJU6
391012HUGHES Graham00:47:31 MV16
401290MIOMANDRE Cécile00:47:45 FSE3team mud run
411003CHARPENTIER Mathieu00:47:53 MSE12
421055DUSSOUCHAUD Christian00:48:21 MV31spiridon limousin
431078FERRANDON Laury00:48:22 MSE13
441027DUMAS Alexandre00:48:28 MSE14mont’run
451047PRESSET David00:48:57 MV17VERNEUIL MACADAM
461008DELVAL Alain00:49:14 MV41US OLYMPIQUE DE CHELLES
471219JEAN Cecile00:49:51 FSE4
481021UNY Cyril00:50:35 MV18
491031DELIAT Fabien00:50:41 MSE15
501246CHARDERON Charlotte00:50:58 FSE5LIMOGES ATHLE*
511275BRES Camille00:50:58 FCA2LIMOGES ATHLE*
521052PIQUET Jérôme00:51:08 MV19courrir en nouvelle-aquitaine
531063NAVARRO Gabriel00:51:35 MV23
541080LAMY Regis00:51:43 MV110aslbv87
551224LOYER Marine00:51:55 FSE6
561037GUILLON Valentin00:51:55 MES5LIMOGES ATHLE*
571048BIGOT Frederic00:52:08 MV24BACK TO THE RUN
581283BOUDIE Myléne00:52:36 FSE7les runners du 19
591026PERRIER Frederic00:52:40 MV25les runners du 19
601270FAUQUEMBERGUE-COLLEE Sandrine00:52:43 FV11EBTA/PBAC
611259DEBELLUT Carine00:52:47 FV12unisylva
621269HAUFFSCHETEDER Emilie00:52:54 FSE8club mud run
631077TAILLADE Aurelie00:53:05 FV13
641067MORICHON Didier00:53:13 MV26VERNEUIL MACADAM
651009DURIS Guillaume00:53:31 MSE16
661277LAFONT Claire00:53:56 FSE9
67726TIEYRE Helene00:54:33 FV14
681227PARRAIN Cecile00:54:58 FV15couzeix runing club
691232RELIAT Nicole00:55:21 FV21
701059LEBOEUF Clement00:55:33 MSE17BACK TO THE RUN
711228PAULOS MEYRIGNAC Audrey00:55:34 FJU1
721231RAVIGNOT Ravignot lauriane00:55:39 FCA3
731276MENADIER Océane00:55:39 FCA4
741062DUSSEL Jacques00:55:48 MV32VERNEUIL MACADAM
751002BROUSSAUDIER Cedric00:55:55 MV111cedric broussaudier
761251LAURENT-GIOT Frédérique00:55:59 FV16cacf running
771029TEILLET Bruno00:56:07 MV27
781265POURET Saskia00:56:22 FSE10
791085MALAVAUD Michel00:56:28 MV33
801223KLEIN Melodie00:56:31 FSE11
811256JAMMET Anne00:56:32 FSE12
821066JAMMET Christophe00:56:42 MV112
831211DUPRAT Marie-amélie00:56:48 FV17
841068BOZZO Olivier00:56:58 MV28VERNEUIL MACADAM
851075DANIEL Gerard00:56:59 MV34COURIR AURAY VANNES
861280REMPHAN Caroline00:57:14 FV18VERNEUIL MACADAM
871278BOROCZFI Sylvie00:57:17 FV19
881249PAILLER Florence00:57:22 FSE13
891271PAQUET Amelie00:57:24 FSE14
901089CARROS Jacques00:57:46 MV35atscaf 87
911261PASTY Estelle00:57:48 FJU2
921237SIRIEIX Caroline00:57:50 FV110bobs les bricoleurs
931024BARNAUD Eric00:57:52 MV113bobs les bricoleurs
941020STRAUB Laurent00:58:06 MV29
951030SOULAT Jean-marie00:58:11 MV42VERNEUIL MACADAM
961274JOSTEN Anne laure00:58:12 FSE15aredius urban training
971272LEVACHER Pauline00:58:17 FSE16mud run limoges
981229PEREIRA Virginie00:58:30 FSE17
991257KORCHIA Nathalie00:58:31 FSE18
1001207CHEVALLIER Benedicte00:58:32 FSE19
1011017PAPEIX Laurent00:58:46 MSE18
1021234STRAUB Céline00:59:03 FV111
1031253GAY Elodie00:59:11 FSE20BACK TO THE RUN
1041016MANDON Stephane00:59:19 MV114
1051053SAUVAGE Philippe01:00:12 MV36
1061226NEBOUT Justine01:00:18 FSE21verneuil macadam
1071046LEGER William01:00:28 MV115
1081088VALERAUD Eric01:00:42 MV116
1091258ABEILLON Camille01:01:03 FSE22
1101051LIBOUTET Valentin01:01:03 MSE19
1111288DE COCK Servane01:01:18 FV112
1121225MARCHAND Carine01:01:44 FV113
1131279MENADIER Alexia01:02:12 FSE23
1141079CART-LAMY Gerard01:02:25 MV37spiridon
1151081POMPIER Pierre01:02:37 MV210
1161268ALIBERT Chloé01:02:52 FSE24
1171074ROMANET Stéphane01:02:59 MV43spiridon limousin
1181281MOREAU Clémence01:03:12 FSE25spiridon 16
1191222KIDD Lesley01:03:27 FV114hakuna matata running club
1201285BOUTANT Annie01:03:34 FV22
1211028VARACHAUD Pierre jean01:04:14 MV211
1221022WIERINK Martin01:04:18 MV38hakuna matata running club
1231238ROSCOUET Katia01:05:02 FV115BACK TO THE RUN
1241025LEROY Philippe01:05:08 MV212
1251018RAMOND Georges01:05:09 MV213
1261287BOULADE Joelle01:05:18 FV23
1271212FIGUEIREDO Laure01:05:30 FV116
1281218HYVERNAUD Sophie01:05:30 FV117
1291255CROGUENNEC Sandrine01:05:33 FV118VERNEUIL MACADAM
1301282CROGUENNEC Jeanne01:05:33 FCA5VERNEUIL MACADAM
1311210DELANDE Katia01:05:40 FV119
1321292AUBERT Anouchka01:05:49 FSE26
1331267BOISSOU Justine01:05:49 FSE27
1341083BODEAU Mathieu01:05:50 MV117
1351084DORISON Pascal01:05:53 MV214
1361284ALIBERT Marlène01:05:58 FSE28
1371091DAULIAT Remi01:06:16 MSE20intersport brive
1381260BLONDEEL Amandine01:06:16 FSE29
1391064DAULIAT Bernard01:06:16 MV39
1401209DELAGE Céline01:07:08 FV120
1411230RAMOND Mélissa01:07:19 FSE30
1421076BONMARTIN Patrick01:07:47 MV215
1431293VALENTI Marie-claire01:08:28 FV24
1441252GAUCHER Agnes01:09:05 FSE31
1451208COUTURIER Gaelle01:09:17 FV121
1461262GUILLOUT Audrey01:10:09 FSE32spiridon 87
1471014LEGOUTEIL Florence01:11:09 FV122
1481239CHABASSE Delphine01:11:10 FSE33
1491263LEONARD Melanie01:12:05 FSE34
1501264FAUCHER Emilie01:12:05 FSE35
1511205BROUSSOLES GOUDIN Isabelle01:12:30 FV25
1521295SIMOES Linda01:12:51 FSE36
1531204BIRAUD Sylvie01:16:07 FV26spiridon mellois
1541291BONHOMME Caroline01:16:52 FV27cam vallee du cher-controis
1551201AUGER Pascaline01:18:07 FSE37
1561235VALENGEON Sophie01:18:07 FV31
1571294CARROIS Bernadette01:19:55 FV32
1581214GALY-DAURIAT Florence02:18:52 FV123
1591266MOSNIER Agnès02:18:52 FV28

(Cliquer sur les points rouge de la carte pour avoir des informations sur le parcours)-
AAltitude min.648mAltitude max.708mDénivelé Tot. +0mDénivelé Tot. -0m

Dénivellé


23 Comments.

  • luce xavier says:

    Bonjour, ravi d’avoir participé pour la seconde fois à cette belle course meme si cette année la course m’à sembler plus difficile à cause de la météo (un peu trop chaud pour courrir) c’est un avis personnel car je supporte mal la chaleur!
    Concernant l’organisation et les bénévoles, que du positif et merci à eux pour leurs efforts et j’espere à l’année prochaine!

  • simonnet says:

    belle course,bien organisée et assez difficile : encouragements pour les années suivantes

  • Verdier says:

    Bonjour
    J’ai participè au 23.4 km,j’ai terminé l’épreuve mais je n’apparait pas au classement .
    J’avais le dossard 283,avez vous des infos?
    Très belle organisation et merci aux bénévoles.

  • Peltier corinne says:

    Il est vrai que je sois arrivée dans les dernières, mais cela ne justifie pas d’avoir des ravitaillements pratiquement sans rien surtout avec la chaleur qu’il faisait. Juste de l’eau et des abricots sec…… des bassines d’eau douteuse…
    Pour être egalement bénévole sur des manifestation de marche nordique’ le montant de l’inscription est disproportionné par rapport à tous cela.
    C’est bien domaine. Merci aux bénévoles qui nous ont accompagné jusqu’au bout.

  • Stéphane FRANCIS says:

    bravo aux organisateurs et a tous les bénévoles au bord de la route. c’est un site magnifique que vous avez su sublimer. sur le 23.4km, je regrette seulement l’absence de section sur autre support que bitume….. peut être que de temps a temps (2eme partie du parcours par exemple ou il y a moins de monde) quelques passages sur sentiers seraient apprécies.

  • LEPETIT says:

    Trés beau parcours bien qu’un peu difficile! Bénévoles trés sympa tout le long de la course.
    Une trés belle médaille, un joli sac!
    Le point négatif : les ravito! Sur certains, uniquement des abricots secs, pruneaux et dattes…Pas facile à avaler!
    A l’arrivée on nous avait promis beaucoup de fruits frais…J’avoue avoir été déçue : à part qques abricots et cerises, nous avons retrouvé les pruneaux et les dattes de la course! Pas d’autres boissons que de l’eau (on aime bien le coca aprés 23 km!), pas de salé, pas de pain d’épices…
    Et enfin, j’avais lu qu’il y aurait des animations tout le long du parcours…au final, seulement à 2 endroits, ça fait pas beaucoup sur 23 km…

  • Boulestin says:

    Bonne organisation
    Bénévoles sympas

  • Pierre NICOLAS says:

    Belle organisation !
    Parcours intéressant avec une météo assez bonne vu les températures subies les jours précédents. Bref idéal !

  • DUCHENE says:

    Bonjour, très bonne organisation, juste un petit reproche, le repas … Macédoine + haricot verts … bof ! Pas un petit morceau de fromage et dessert un peu juste ! Viande très bien, bonne continuation, sportivement Patrice

  • Ledur says:

    Comme tous les ans,bravo pour l’organisation ,la gentillesse et le professionnalisme des bénévoles que ce soit en terme d’aide ou de renseignements..
    Un seul petit regret,c’est qu’il n’y est pas une boisson sucrée à l’arrivée pour recharger les batteries..

  • DUBOT Didier says:

    Bonjour,
    Ambiance chaleureuse, organisateur sympas comme toutes les personnes sur les ravitaillements.
    Par contre vu la chaleur, même si pas évident au niveau organisation il aurait été préférable de décaler la course au matin. ( comme le dimanche )
    Vous n’avez pas trop tenu compte du temps et de la chaleur, ravitaillements trop éloignés , il aurait été bien de prévoir plus de points d’eau.
    Manque de sucré sur les ravitaillements( jus de fruits, coca )
    On reviendra d l’année prochaine s’il fait moins chaud, là c’était quand même limite au niveau sécurité.
    Cordialement

  • TKACZUK says:

    Très belle et difficile course. Ravitaillements légers pour la nourriture cependant. De plus il est dommage qu’il ne soit pas prévu de grands bacs pour la récupération des gobelets et éponges à l’attention des coureurs. Peut-être prévoir également une ligne sur le site pour le covoiturage.

  • DESCHAMPS says:

    SUPER CADRE MAGNIFIQUE. J AI RESERVE AU CAMPING LES 2 ILES AAUPHELLE POUR MES VACANCES.

  • COURCINOUX says:

    mon premier tour du lac de vassivière – parcours un peu difficile- peu de zone de récup haha!! bcp de route – par contre aux ravitos, il manquait des fruits frais – et à l’arrivée, quand on arrive un peu vers la fin – il n’y a plus grand chose – manquait un peu de salé – fruits frais -je fais souvent des trails et les ravitos sont plus complets – sinon les points d’eau et éponge, bien placé – bénévoles OK – les bénévoles pour les éponges – sympas – par contre stand massage de récup. super – et sympa

  • COURCINOUX says:

    mon premier tour du lac de vassivière – parcours un peu difficile- peu de zone de récup haha!! par contre aux ravitos manquait des fruits frais – et à l’arrivée, quand on arrive un peu vers la fin – il n’y a pas gd chose – manquait un peu de salé – fruits frais -je fais souvent des trails et les ravitos sont plus complets – sinon les points d’eau et éponge, bien placé – bénévoles OK – beaucoup – les bénévoles pour les éponges – sympas

  • croizie says:

    Bonjour à tous.
    Très belle épreuve de MN.
    Peut être un peu trop de route mais je sais que ce n’est pas toujours possible de faire du 100% chemin.Merci à tout les bénévoles qui ont été super à chaque point d’eau pour nous aider à nous rafraichir.
    Encore merci ,je reviendrai l’année prochaine avec une meilleur préparation.
    Salutations sportives.
    Jean Pierre.

  • DURIS says:

    SUPER….

  • LEROY says:

    Toujours aussi super !

  • martial CARDE says:

    course très bien organisée, bonne ambiance je la reviendrai surement l’année prochaine (je l’avais fais l’année dernière) même si je trouve que le prix de l’inscription sur place (30€) est un peu exagéré.
    merci à tous les bénévoles

  • Bordes says:

    Très belle course et organisation…2 petites suggestions pour l’avenir:
    Avancer le départ quand il fait très chaud comme aujourd’hui serait appréciable!!
    Mettre du salé dans les ravito
    Merci à vous

  • Guillon Rodolph says:

    Bonjour, est il normal que nous ne puissions pas vérifier notre pré inscription ?
    Merci pour votre retour.

  • jorganize says:

    Bonjour,
    L’inscription ne comprend pas le repas du soir. vous pouvez prendre des repas supplémentaires sans épreuves sportives dans la rubrique « boutique » (inscription internet).
    cordialement

  • CONTARIN says:

    Bonjour,

    le prix de 20 € pour la marche nordique comprend-il le repas du soir ? Est-il possible de ne payer que l’inscription sans le repas ? Certains d’entre-nous ferons la marche, d’autres la course le lendemain. Si nous voulons prendre des repas supplémentaires, comment faut-il faire ?

    Dans l’attente de votre réponse, merci d’avance.

    Bérengère CONTARIN




Le resenti (3 choix possibles)

  • Je reviens l’année prochaine (0%, 0 Votes)
  • Plus pour moi (0%, 0 Votes)
  • J’ai battu mon record (0%, 0 Votes)
  • Ambiance chaleureuse et convivial (0%, 0 Votes)
  • Bonne restauration (0%, 0 Votes)

Total Voters: 0

Loading ... Loading ...

Le parcours (4 choix possibles)

  • Dur dur (0%, 0 Votes)
  • rien à dire, impeccable (0%, 0 Votes)
  • Trop de route ! (0%, 0 Votes)
  • super vue, paysage magnifique (0%, 0 Votes)
  • Rapide Sélectif (0%, 0 Votes)
  • Ca grimpe dur ! (0%, 0 Votes)
  • Attention ça glisse ! (0%, 0 Votes)
  • Balisage impeccable (0%, 0 Votes)
  • Je me suis perdu (0%, 0 Votes)

Total Voters: 0

Loading ... Loading ...

Ravitaillement (3 choix possibles)

  • Quel festin ! (0%, 0 Votes)
  • Peu nombreux sur le parcours (0%, 0 Votes)
  • Peu fourni (0%, 0 Votes)
  • Des dechets bien recyclés (0%, 0 Votes)
  • Mal placé sur le parcours (0%, 0 Votes)
  • Bien placé sur le parcours (0%, 0 Votes)

Total Voters: 0

Loading ... Loading ...

Les récompenses (3 choix possibles)

  • Super récompense (0%, 0 Votes)
  • Idée originale (0%, 0 Votes)
  • Bien doté (0%, 0 Votes)
  • On a trop attendu (0%, 0 Votes)

Total Voters: 0

Loading ... Loading ...

La météo (2 choix possibles)

  • Quoi de mieux ! (100%, 1 Votes)
  • Quelle chaleur ! (0%, 0 Votes)
  • Impeccable pour courir (0%, 0 Votes)
  • Je me suis bien trempé(e) (0%, 0 Votes)
  • Gla gla ! (0%, 0 Votes)
  • trop de vent (0%, 0 Votes)

Total Voters: 1

Loading ... Loading ...